Miscellaneous Local Product
Issued by NWS Hastings, NE

Home | Current Version | Previous Version | Graphics & Text | Print | Product List | Glossary Off
Versions: 1 2 3 4 5 6 7 8 9 10 11 12 13 14 15 16 17 18 19 20 21 22 23 24 25 26 27 28 29 30 31 32 33 34 35 36 37 38 39 40 41 42 43 44 45 46 47 48 49 50

000
AXUS43 KGID 010702
MISGRI

GID CWA HOURLY WEATHER ROUNDUP
NATIONAL WEATHER SERVICE HASTINGS NE
200 AM CDT WED JUN 01 2016

NOTE: "FAIR" INDICATES FEW OR NO CLOUDS BELOW 12,000 FEET WITH NO
SIGNIFICANT WEATHER AND/OR OBSTRUCTIONS TO VISIBILITY.

...SOUTH CENTRAL NEBRASKA...

CITY           SKY/WX    TMP DP  RH WIND       PRES   REMARKS
GRAND ISLAND   CLEAR     57  50  77 N8        30.05S
HASTINGS       CLEAR     59  50  72 SW3       30.03F
KEARNEY        CLEAR     57  46  67 N13       30.07S
ORD            NOT AVBL
YORK           CLEAR     57  52  82 NW13      30.03S
AURORA         CLEAR     60  52  76 NW12      30.03S
LEXINGTON      CLEAR     54  48  80 N3        30.10R
HOLDREGE       CLEAR     57  48  73 CALM      30.05F
HEBRON         CLEAR     59  57  92 W3        30.00F

...NEBRASKA PANHANDLE...

CITY           SKY/WX    TMP DP  RH WIND       PRES   REMARKS
CHADRON        CLEAR     45  39  79 W9        30.14R
ALLIANCE       CLEAR     36  35  96 SW5       30.14R WCI  32
SCOTTSBLUFF    MOCLDY    46  38  73 N8        30.16F
SIDNEY         PTCLDY    45  40  82 N7        30.18R

...WESTERN AND NORTH CENTRAL NEBRASKA...

CITY           SKY/WX    TMP DP  RH WIND       PRES   REMARKS
VALENTINE      CLEAR     50  43  77 W8        30.07F
AINSWORTH      CLEAR     51  45  81 W7        30.07S
ONEILL         CLEAR     52  47  84 SW7       30.05R
BROKEN BOW     CLEAR     51  46  83 CALM      30.08S
IMPERIAL       CLOUDY    55  48  77 N6        30.13R
NORTH PLATTE   CLEAR     52  45  77 VRB3      30.12R
MCCOOK         CLEAR     54  50  86 W5        30.09R

...EASTERN NEBRASKA...

CITY           SKY/WX    TMP DP  RH WIND       PRES   REMARKS
NORFOLK        CLEAR     55  48  77 NW7       30.01F
SO SIOUX CITY  PTCLDY    60  49  66 NW9       29.98S
TEKAMAH        CLEAR     62  48  60 NW10      29.97R
COLUMBUS       CLEAR     59  45  58 NW6       30.03F
ALBION         PTCLDY    54  47  78 NW5       30.04F
OMAHA EPPLEY   PTCLDY    63  55  75 SE3       29.96F
OFFUTT AFB     CLEAR     56  56  98 W3        29.95F
MILLARD        CLEAR     58  54  86 CALM      29.97F
LINCOLN        CLEAR     63  52  67 W3        29.98F
NEBRASKA CITY  CLEAR     61  57  88 W6        29.97F
BEATRICE       CLEAR     60  55  86 CALM      29.99F
FALLS CITY     CLOUDY    62  57  83 W5        29.95F

...NORTHERN KANSAS...

CITY           SKY/WX    TMP DP  RH WIND       PRES   REMARKS
GOODLAND       CLOUDY    56  48  74 S6        30.13R
HILL CITY      PTCLDY    56  54  93 NW6       30.06F
NORTON         SUNNY     54  46  76 W5        30.07R
PHILLIPSBURG   CLEAR     55  55 100 W8        30.05F
SMITH CENTER   CLEAR     54  54 100 NW7       30.04S
BELOIT         CLEAR     55  54  94 NW5       29.99F
HAYS           CLEAR     55  48  76 W5        30.04R
RUSSELL        CLEAR     60  57  89 N5        30.01S
CONCORDIA      CLEAR     60  55  83 NW3       29.99F
SALINA         CLEAR     63  60  90 NW5       30.00S
TOPEKA         CLOUDY    65  62  90 CALM      29.96F



USA.gov is the U.S. government's official web portal to all federal, state and local government web resources and services.